Year,Month,Day,Hour,Minute,Value (Times are PST for temperature in C)
2006,10,23,00,00,6.40
2006,10,23,00,01,6.40
2006,10,23,00,02,6.40
2006,10,23,00,03,5.80
2006,10,23,00,04,5.30
2006,10,23,00,05,5.30
2006,10,23,00,06,5.30
2006,10,23,00,07,5.30
2006,10,23,00,08,5.30
2006,10,23,00,09,5.30
2006,10,23,00,10,5.30
2006,10,23,00,11,5.30
2006,10,23,00,12,5.30
2006,10,23,00,13,5.30
2006,10,23,00,14,5.30
2006,10,23,00,15,5.20
2006,10,23,00,16,5.20
2006,10,23,00,17,5.20
2006,10,23,00,18,5.20
2006,10,23,00,19,6.00
2006,10,23,00,20,6.40
2006,10,23,00,21,6.40
2006,10,23,00,22,6.40
2006,10,23,00,23,6.40
2006,10,23,00,24,6.30
2006,10,23,00,25,6.30
2006,10,23,00,26,6.30
2006,10,23,00,27,6.30
2006,10,23,00,28,6.30
2006,10,23,00,29,6.30
2006,10,23,00,30,6.20
2006,10,23,00,31,6.20
2006,10,23,00,32,6.20
2006,10,23,00,33,6.20
2006,10,23,00,34,6.20
2006,10,23,00,35,6.20
2006,10,23,00,36,6.20
2006,10,23,00,37,6.20
2006,10,23,00,38,6.20
2006,10,23,00,39,6.20
2006,10,23,00,40,6.20
2006,10,23,00,41,6.20
2006,10,23,00,42,6.20
2006,10,23,00,43,6.20
2006,10,23,00,44,6.20
2006,10,23,00,45,6.20
2006,10,23,00,46,6.20
2006,10,23,00,47,6.20
2006,10,23,00,48,6.20
2006,10,23,00,49,6.20
2006,10,23,00,50,6.20
2006,10,23,00,51,6.20
2006,10,23,00,52,6.20
2006,10,23,00,53,6.10
2006,10,23,00,54,6.10
2006,10,23,00,55,6.10
2006,10,23,00,56,6.10
2006,10,23,00,57,6.10
2006,10,23,00,58,6.10
2006,10,23,00,59,6.10
2006,10,23,01,00,6.10
2006,10,23,01,01,6.10
2006,10,23,01,02,6.10
2006,10,23,01,03,6.10
2006,10,23,01,04,6.10
2006,10,23,01,05,6.10
2006,10,23,01,06,6.10
2006,10,23,01,07,6.10
2006,10,23,01,08,6.10
2006,10,23,01,09,6.10
2006,10,23,01,10,6.00
2006,10,23,01,11,6.00
2006,10,23,01,12,6.00
2006,10,23,01,13,6.00
2006,10,23,01,14,6.00
2006,10,23,01,15,6.00
2006,10,23,01,16,5.90
2006,10,23,01,17,5.90
2006,10,23,01,18,5.80
2006,10,23,01,19,5.80
2006,10,23,01,20,5.80
2006,10,23,01,21,5.80
2006,10,23,01,22,5.80
2006,10,23,01,23,5.80
2006,10,23,01,24,5.80
2006,10,23,01,25,5.80
2006,10,23,01,26,5.80
2006,10,23,01,27,5.80
2006,10,23,01,28,5.80
2006,10,23,01,29,5.90
2006,10,23,01,30,5.90
2006,10,23,01,31,5.90
2006,10,23,01,32,5.80
2006,10,23,01,33,5.80
2006,10,23,01,34,5.80
2006,10,23,01,35,5.90
2006,10,23,01,36,5.90
2006,10,23,01,37,5.90
2006,10,23,01,38,6.00
2006,10,23,01,39,6.00
2006,10,23,01,40,6.00
2006,10,23,01,41,6.00
2006,10,23,01,42,6.00
2006,10,23,01,43,6.00
2006,10,23,01,44,6.00
2006,10,23,01,45,6.00
2006,10,23,01,46,5.90
2006,10,23,01,47,5.90
2006,10,23,01,48,5.90
2006,10,23,01,49,5.90
2006,10,23,01,50,5.80
2006,10,23,01,51,5.80
2006,10,23,01,52,5.80
2006,10,23,01,53,5.70
2006,10,23,01,54,5.70
2006,10,23,01,55,5.70
2006,10,23,01,56,5.70
2006,10,23,01,57,5.70
2006,10,23,01,58,5.70
2006,10,23,01,59,5.20
2006,10,23,02,00,4.60
2006,10,23,02,01,4.60
2006,10,23,02,02,4.60
2006,10,23,02,03,4.50
2006,10,23,02,04,4.50
2006,10,23,02,05,4.50
2006,10,23,02,06,4.50
2006,10,23,02,07,4.50
2006,10,23,02,08,4.40
2006,10,23,02,09,4.40
2006,10,23,02,10,4.40
2006,10,23,02,11,4.40
2006,10,23,02,12,4.50
2006,10,23,02,13,4.50
2006,10,23,02,14,4.50
2006,10,23,02,15,4.50
2006,10,23,02,16,4.50
2006,10,23,02,17,4.50
2006,10,23,02,18,4.50
2006,10,23,02,19,4.50
2006,10,23,02,20,4.50
2006,10,23,02,21,4.50
2006,10,23,02,22,4.50
2006,10,23,02,23,4.50
2006,10,23,02,24,4.40
2006,10,23,02,25,4.40
2006,10,23,02,26,4.40
2006,10,23,02,27,4.40
2006,10,23,02,28,4.30
2006,10,23,02,29,4.30
2006,10,23,02,30,4.30
2006,10,23,02,31,4.30
2006,10,23,02,32,4.30
2006,10,23,02,33,4.30
2006,10,23,02,34,4.30
2006,10,23,02,35,4.30
2006,10,23,02,36,4.30
2006,10,23,02,37,4.30
2006,10,23,02,38,4.30
2006,10,23,02,39,5.10
2006,10,23,02,40,5.20
2006,10,23,02,41,5.10
2006,10,23,02,42,5.10
2006,10,23,02,43,5.10
2006,10,23,02,44,5.10
2006,10,23,02,45,5.10
2006,10,23,02,46,5.10
2006,10,23,02,47,5.10
2006,10,23,02,48,5.10
2006,10,23,02,49,5.10
2006,10,23,02,50,5.10
2006,10,23,02,51,5.10
2006,10,23,02,52,5.10
2006,10,23,02,53,5.10
2006,10,23,02,54,5.10
2006,10,23,02,55,5.10
2006,10,23,02,56,5.10
2006,10,23,02,57,5.10
2006,10,23,02,58,5.10
2006,10,23,02,59,5.10
2006,10,23,03,00,5.10
2006,10,23,03,01,5.10
2006,10,23,03,02,5.10
2006,10,23,03,03,5.10
2006,10,23,03,04,5.10
2006,10,23,03,05,4.20
2006,10,23,03,06,3.90
2006,10,23,03,07,4.00
2006,10,23,03,08,4.10
2006,10,23,03,09,4.20
2006,10,23,03,10,4.20
2006,10,23,03,11,4.20
2006,10,23,03,12,4.10
2006,10,23,03,13,4.10
2006,10,23,03,14,4.00
2006,10,23,03,15,3.90
2006,10,23,03,16,3.80
2006,10,23,03,17,3.80
2006,10,23,03,18,3.70
2006,10,23,03,19,3.70
2006,10,23,03,20,3.70
2006,10,23,03,21,3.60
2006,10,23,03,22,3.60
2006,10,23,03,23,3.60
2006,10,23,03,24,3.50
2006,10,23,03,25,3.50
2006,10,23,03,26,3.50
2006,10,23,03,27,3.50
2006,10,23,03,28,3.50
2006,10,23,03,29,3.50
2006,10,23,03,30,3.50
2006,10,23,03,31,3.40
2006,10,23,03,32,3.40
2006,10,23,03,33,3.40
2006,10,23,03,34,4.70
2006,10,23,03,35,4.80
2006,10,23,03,36,4.80
2006,10,23,03,37,4.70
2006,10,23,03,38,4.70
2006,10,23,03,39,4.70
2006,10,23,03,40,4.70
2006,10,23,03,41,4.70
2006,10,23,03,42,4.60
2006,10,23,03,43,4.60
2006,10,23,03,44,4.60
2006,10,23,03,45,4.60
2006,10,23,03,46,4.60
2006,10,23,03,47,4.60
2006,10,23,03,48,4.50
2006,10,23,03,49,4.50
2006,10,23,03,50,4.50
2006,10,23,03,51,4.40
2006,10,23,03,52,4.40
2006,10,23,03,53,4.40
2006,10,23,03,54,4.40
2006,10,23,03,55,4.30
2006,10,23,03,56,4.30
2006,10,23,03,57,4.20
2006,10,23,03,58,4.20
2006,10,23,03,59,4.20
2006,10,23,04,00,4.20
2006,10,23,04,01,4.20
2006,10,23,04,02,4.20
2006,10,23,04,03,4.20
2006,10,23,04,04,4.20
2006,10,23,04,05,4.20
2006,10,23,04,06,4.20
2006,10,23,04,07,4.30
2006,10,23,04,08,4.40
2006,10,23,04,09,4.40
2006,10,23,04,10,4.40
2006,10,23,04,11,4.40
2006,10,23,04,12,4.50
2006,10,23,04,13,4.50
2006,10,23,04,14,4.50
2006,10,23,04,15,4.50
2006,10,23,04,16,4.50
2006,10,23,04,17,4.60
2006,10,23,04,18,4.60
2006,10,23,04,19,4.60
2006,10,23,04,20,4.60
2006,10,23,04,21,4.50
2006,10,23,04,22,4.50
2006,10,23,04,23,4.50
2006,10,23,04,24,4.50
2006,10,23,04,25,4.40
2006,10,23,04,26,4.40
2006,10,23,04,27,4.30
2006,10,23,04,28,4.30
2006,10,23,04,29,4.20
2006,10,23,04,30,4.20
2006,10,23,04,31,4.20
2006,10,23,04,32,4.20
2006,10,23,04,33,4.20
2006,10,23,04,34,4.10
2006,10,23,04,35,4.10
2006,10,23,04,36,4.10
2006,10,23,04,37,4.00
2006,10,23,04,38,4.00
2006,10,23,04,39,4.00
2006,10,23,04,40,4.00
2006,10,23,04,41,4.00
2006,10,23,04,42,4.00
2006,10,23,04,43,3.90
2006,10,23,04,44,3.90
2006,10,23,04,45,3.80
2006,10,23,04,46,3.80
2006,10,23,04,47,3.80
2006,10,23,04,48,3.80
2006,10,23,04,49,3.80
2006,10,23,04,50,3.70
2006,10,23,04,51,3.70
2006,10,23,04,52,3.70
2006,10,23,04,53,3.70
2006,10,23,04,54,3.70
2006,10,23,04,55,3.70
2006,10,23,04,56,3.70
2006,10,23,04,57,3.70
2006,10,23,04,58,3.70
2006,10,23,04,59,3.70
2006,10,23,05,00,3.70
2006,10,23,05,01,3.70
2006,10,23,05,02,3.60
2006,10,23,05,03,3.60
2006,10,23,05,04,3.60
2006,10,23,05,05,3.60
2006,10,23,05,06,3.60
2006,10,23,05,07,3.60
2006,10,23,05,08,3.60
2006,10,23,05,09,3.70
2006,10,23,05,10,3.70
2006,10,23,05,11,3.70
2006,10,23,05,12,3.70
2006,10,23,05,13,3.70
2006,10,23,05,14,3.70
2006,10,23,05,15,3.70
2006,10,23,05,16,3.70
2006,10,23,05,17,3.70
2006,10,23,05,18,3.70
2006,10,23,05,19,3.70
2006,10,23,05,20,3.70
2006,10,23,05,21,3.70
2006,10,23,05,22,3.70
2006,10,23,05,23,3.60
2006,10,23,05,24,3.60
2006,10,23,05,25,3.60
2006,10,23,05,26,3.60
2006,10,23,05,27,3.50
2006,10,23,05,28,3.50
2006,10,23,05,29,3.50
2006,10,23,05,30,3.40
2006,10,23,05,31,3.40
2006,10,23,05,32,3.40
2006,10,23,05,33,3.30
2006,10,23,05,34,3.30
2006,10,23,05,35,3.40
2006,10,23,05,36,3.40
2006,10,23,05,37,3.50
2006,10,23,05,38,3.50
2006,10,23,05,39,3.50
2006,10,23,05,40,3.50
2006,10,23,05,41,3.50
2006,10,23,05,42,3.50
2006,10,23,05,43,3.50
2006,10,23,05,44,3.60
2006,10,23,05,45,3.60
2006,10,23,05,46,3.60
2006,10,23,05,47,3.60
2006,10,23,05,48,3.60
2006,10,23,05,49,3.60
2006,10,23,05,50,3.60
2006,10,23,05,51,3.70
2006,10,23,05,52,3.60
2006,10,23,05,53,3.60
2006,10,23,05,54,3.60
2006,10,23,05,55,3.60
2006,10,23,05,56,3.60
2006,10,23,05,57,3.50
2006,10,23,05,58,3.50
2006,10,23,05,59,3.50
2006,10,23,06,00,3.50
2006,10,23,06,01,3.40
2006,10,23,06,02,3.40
2006,10,23,06,03,3.40
2006,10,23,06,04,3.40
2006,10,23,06,05,3.30
2006,10,23,06,06,3.30
2006,10,23,06,07,3.30
2006,10,23,06,08,3.30
2006,10,23,06,09,3.30
2006,10,23,06,10,3.30
2006,10,23,06,11,3.30
2006,10,23,06,12,3.20
2006,10,23,06,13,3.20
2006,10,23,06,14,3.20
2006,10,23,06,15,3.20
2006,10,23,06,16,3.20
2006,10,23,06,17,3.20
2006,10,23,06,18,3.20
2006,10,23,06,19,3.20
2006,10,23,06,20,3.10
2006,10,23,06,21,3.10
2006,10,23,06,22,3.10
2006,10,23,06,23,3.10
2006,10,23,06,24,3.10
2006,10,23,06,25,3.10
2006,10,23,06,26,3.10
2006,10,23,06,27,3.10
2006,10,23,06,28,3.10
2006,10,23,06,29,3.10
2006,10,23,06,30,3.10
2006,10,23,06,31,3.20
2006,10,23,06,32,3.20
2006,10,23,06,33,3.20
2006,10,23,06,34,3.30
2006,10,23,06,35,3.30
2006,10,23,06,36,3.30
2006,10,23,06,37,3.40
2006,10,23,06,38,3.40
2006,10,23,06,39,3.40
2006,10,23,06,40,3.40
2006,10,23,06,41,3.40
2006,10,23,06,42,3.40
2006,10,23,06,43,3.40
2006,10,23,06,44,3.40
2006,10,23,06,45,3.40
2006,10,23,06,46,3.40
2006,10,23,06,47,3.40
2006,10,23,06,48,3.40
2006,10,23,06,49,3.40
2006,10,23,06,50,3.40
2006,10,23,06,51,3.40
2006,10,23,06,52,3.40
2006,10,23,06,53,2.30
2006,10,23,06,54,1.90
2006,10,23,06,55,1.90
2006,10,23,06,56,1.90
2006,10,23,06,57,1.90
2006,10,23,06,58,2.00
2006,10,23,06,59,2.00
2006,10,23,07,00,2.40
2006,10,23,07,01,3.30
2006,10,23,07,02,3.30
2006,10,23,07,03,3.30
2006,10,23,07,04,3.30
2006,10,23,07,05,3.30
2006,10,23,07,06,3.30
2006,10,23,07,07,3.30
2006,10,23,07,08,3.30
2006,10,23,07,09,3.30
2006,10,23,07,10,3.30
2006,10,23,07,11,3.30
2006,10,23,07,12,3.30
2006,10,23,07,13,3.20
2006,10,23,07,14,2.00
2006,10,23,07,15,2.10
2006,10,23,07,16,2.10
2006,10,23,07,17,2.10
2006,10,23,07,18,2.20
2006,10,23,07,19,2.30
2006,10,23,07,20,2.30
2006,10,23,07,21,2.30
2006,10,23,07,22,2.30
2006,10,23,07,23,2.30
2006,10,23,07,24,2.20
2006,10,23,07,25,2.20
2006,10,23,07,26,2.20
2006,10,23,07,27,2.20
2006,10,23,07,28,2.10
2006,10,23,07,29,2.10
2006,10,23,07,30,2.10
2006,10,23,07,31,2.10
2006,10,23,07,32,2.00
2006,10,23,07,33,2.00
2006,10,23,07,34,1.90
2006,10,23,07,35,1.90
2006,10,23,07,36,1.90
2006,10,23,07,37,1.90
2006,10,23,07,38,1.90
2006,10,23,07,39,1.90
2006,10,23,07,40,1.90
2006,10,23,07,41,1.90
2006,10,23,07,42,1.90
2006,10,23,07,43,1.90
2006,10,23,07,44,1.90
2006,10,23,07,45,1.90
2006,10,23,07,46,1.90
2006,10,23,07,47,1.90
2006,10,23,07,48,1.90
2006,10,23,07,49,1.90
2006,10,23,07,50,1.90
2006,10,23,07,51,1.90
2006,10,23,07,52,1.90
2006,10,23,07,53,1.90
2006,10,23,07,54,1.90
2006,10,23,07,55,1.90
2006,10,23,07,56,1.80
2006,10,23,07,57,1.80
2006,10,23,07,58,1.80
2006,10,23,07,59,1.80
2006,10,23,08,00,1.80
2006,10,23,08,01,1.80
2006,10,23,08,02,1.80
2006,10,23,08,03,1.80
2006,10,23,08,04,1.80
2006,10,23,08,05,1.80
2006,10,23,08,06,1.80
2006,10,23,08,07,1.90
2006,10,23,08,08,1.90
2006,10,23,08,09,1.90
2006,10,23,08,10,1.90
2006,10,23,08,11,1.90
2006,10,23,08,12,1.90
2006,10,23,08,13,1.90
2006,10,23,08,14,2.00
2006,10,23,08,15,3.40
2006,10,23,08,16,3.40
2006,10,23,08,17,3.50
2006,10,23,08,18,3.50
2006,10,23,08,19,3.50
2006,10,23,08,20,3.60
2006,10,23,08,21,3.60
2006,10,23,08,22,3.70
2006,10,23,08,23,3.70
2006,10,23,08,24,3.80
2006,10,23,08,25,3.80
2006,10,23,08,26,3.80
2006,10,23,08,27,3.80
2006,10,23,08,28,3.90
2006,10,23,08,29,3.90
2006,10,23,08,30,4.00
2006,10,23,08,31,4.00
2006,10,23,08,32,4.00
2006,10,23,08,33,4.10
2006,10,23,08,34,4.10
2006,10,23,08,35,4.10
2006,10,23,08,36,4.10
2006,10,23,08,37,4.10
2006,10,23,08,38,4.10
2006,10,23,08,39,4.10
2006,10,23,08,40,4.10
2006,10,23,08,41,4.10
2006,10,23,08,42,4.10
2006,10,23,08,43,4.10
2006,10,23,08,44,4.10
2006,10,23,08,45,4.20
2006,10,23,08,46,4.20
2006,10,23,08,47,4.20
2006,10,23,08,48,4.20
2006,10,23,08,49,4.20
2006,10,23,08,50,4.30
2006,10,23,08,51,4.30
2006,10,23,08,52,4.30
2006,10,23,08,53,4.40
2006,10,23,08,54,4.40
2006,10,23,08,55,4.50
2006,10,23,08,56,4.60
2006,10,23,08,57,4.60
2006,10,23,08,58,4.70
2006,10,23,08,59,4.80
2006,10,23,09,00,4.90
2006,10,23,09,01,5.00
2006,10,23,09,02,5.10
2006,10,23,09,03,5.10
2006,10,23,09,04,5.20
2006,10,23,09,05,5.30
2006,10,23,09,06,5.30
2006,10,23,09,07,5.30
2006,10,23,09,08,5.30
2006,10,23,09,09,5.40
2006,10,23,09,10,5.40
2006,10,23,09,11,5.30
2006,10,23,09,12,5.30
2006,10,23,09,13,5.30
2006,10,23,09,14,5.30
2006,10,23,09,15,5.30
2006,10,23,09,16,5.30
2006,10,23,09,17,5.30
2006,10,23,09,18,5.30
2006,10,23,09,19,5.30
2006,10,23,09,20,5.40
2006,10,23,09,21,5.50
2006,10,23,09,22,5.50
2006,10,23,09,23,5.60
2006,10,23,09,24,5.70
2006,10,23,09,25,5.70
2006,10,23,09,26,5.80
2006,10,23,09,27,5.90
2006,10,23,09,28,6.00
2006,10,23,09,29,6.00
2006,10,23,09,30,6.10
2006,10,23,09,31,6.10
2006,10,23,09,32,6.20
2006,10,23,09,33,6.20
2006,10,23,09,34,6.30
2006,10,23,09,35,6.30
2006,10,23,09,36,6.40
2006,10,23,09,37,6.40
2006,10,23,09,38,6.40
2006,10,23,09,39,6.50
2006,10,23,09,40,6.60
2006,10,23,09,41,6.60
2006,10,23,09,42,6.60
2006,10,23,09,43,6.60
2006,10,23,09,44,6.70
2006,10,23,09,45,6.70
2006,10,23,09,46,6.80
2006,10,23,09,47,6.80
2006,10,23,09,48,6.90
2006,10,23,09,49,7.00
2006,10,23,09,50,7.10
2006,10,23,09,51,7.10
2006,10,23,09,52,7.20
2006,10,23,09,53,7.20
2006,10,23,09,54,7.30
2006,10,23,09,55,7.40
2006,10,23,09,56,7.40
2006,10,23,09,57,7.50
2006,10,23,09,58,7.60
2006,10,23,09,59,7.60
2006,10,23,10,00,7.70
2006,10,23,10,01,7.80
2006,10,23,10,02,7.80
2006,10,23,10,03,7.80
2006,10,23,10,04,7.90
2006,10,23,10,05,8.00
2006,10,23,10,06,8.00
2006,10,23,10,07,8.10
2006,10,23,10,08,8.10
2006,10,23,10,09,8.20
2006,10,23,10,10,8.30
2006,10,23,10,11,8.30
2006,10,23,10,12,8.40
2006,10,23,10,13,8.50
2006,10,23,10,14,8.50
2006,10,23,10,15,8.70
2006,10,23,10,16,8.80
2006,10,23,10,17,8.90
2006,10,23,10,18,9.00
2006,10,23,10,19,9.00
2006,10,23,10,20,9.10
2006,10,23,10,21,9.20
2006,10,23,10,22,9.30
2006,10,23,10,23,9.40
2006,10,23,10,24,9.50
2006,10,23,10,25,9.50
2006,10,23,10,26,9.60
2006,10,23,10,27,9.70
2006,10,23,10,28,9.70
2006,10,23,10,29,9.80
2006,10,23,10,30,9.80
2006,10,23,10,31,10.00
2006,10,23,10,32,10.10
2006,10,23,10,33,10.20
2006,10,23,10,34,10.30
2006,10,23,10,35,10.30
2006,10,23,10,36,10.30
2006,10,23,10,37,10.40
2006,10,23,10,38,10.40
2006,10,23,10,39,10.50
2006,10,23,10,40,10.60
2006,10,23,10,41,10.60
2006,10,23,10,42,10.70
2006,10,23,10,43,10.70
2006,10,23,10,44,10.70
2006,10,23,10,45,10.70
2006,10,23,10,46,10.60
2006,10,23,10,47,10.60
2006,10,23,10,48,10.60
2006,10,23,10,49,10.60
2006,10,23,10,50,10.70
2006,10,23,10,51,10.80
2006,10,23,10,52,10.80
2006,10,23,10,53,10.90
2006,10,23,10,54,10.90
2006,10,23,10,55,10.90
2006,10,23,10,56,10.90
2006,10,23,10,57,10.90
2006,10,23,10,58,10.90
2006,10,23,10,59,10.90
2006,10,23,11,00,10.90
2006,10,23,11,01,10.90
2006,10,23,11,02,10.90
2006,10,23,11,03,10.90
2006,10,23,11,04,10.90
2006,10,23,11,05,10.90
2006,10,23,11,06,10.90
2006,10,23,11,07,10.90
2006,10,23,11,08,10.90
2006,10,23,11,09,10.90
2006,10,23,11,10,10.90
2006,10,23,11,11,11.00
2006,10,23,11,12,11.10
2006,10,23,11,13,11.10
2006,10,23,11,14,11.10
2006,10,23,11,15,11.10
2006,10,23,11,16,11.10
2006,10,23,11,17,11.10
2006,10,23,11,18,11.10
2006,10,23,11,19,11.10
2006,10,23,11,20,11.10
2006,10,23,11,21,11.10
2006,10,23,11,22,11.10
2006,10,23,11,23,11.20
2006,10,23,11,24,11.20
2006,10,23,11,25,11.20
2006,10,23,11,26,11.30
2006,10,23,11,27,11.20
2006,10,23,11,28,11.20
2006,10,23,11,29,11.20
2006,10,23,11,30,11.30
2006,10,23,11,31,11.30
2006,10,23,11,32,11.30
2006,10,23,11,33,11.40
2006,10,23,11,34,11.40
2006,10,23,11,35,11.40
2006,10,23,11,36,11.40
2006,10,23,11,37,11.40
2006,10,23,11,38,11.30
2006,10,23,11,39,11.30
2006,10,23,11,40,11.30
2006,10,23,11,41,11.30
2006,10,23,11,42,11.30
2006,10,23,11,43,11.30
2006,10,23,11,44,11.30
2006,10,23,11,45,11.40
2006,10,23,11,46,11.40
2006,10,23,11,47,11.40
2006,10,23,11,48,11.40
2006,10,23,11,49,11.50
2006,10,23,11,50,11.60
2006,10,23,11,51,11.60
2006,10,23,11,52,11.70
2006,10,23,11,53,11.70
2006,10,23,11,54,11.70
2006,10,23,11,55,11.60
2006,10,23,11,56,11.60
2006,10,23,11,57,11.60
2006,10,23,11,58,11.60
2006,10,23,11,59,11.60
2006,10,23,12,00,11.60
2006,10,23,12,01,11.60
2006,10,23,12,02,11.60
2006,10,23,12,03,11.60
2006,10,23,12,04,11.60
2006,10,23,12,05,11.60
2006,10,23,12,06,11.60
2006,10,23,12,07,11.70
2006,10,23,12,08,11.70
2006,10,23,12,09,11.80
2006,10,23,12,10,11.80
2006,10,23,12,11,11.90
2006,10,23,12,12,11.90
2006,10,23,12,13,11.80
2006,10,23,12,14,11.80
2006,10,23,12,15,11.80
2006,10,23,12,16,11.70
2006,10,23,12,17,11.70
2006,10,23,12,18,11.70
2006,10,23,12,19,11.70
2006,10,23,12,20,11.70
2006,10,23,12,21,11.60
2006,10,23,12,22,11.60
2006,10,23,12,23,11.50
2006,10,23,12,24,11.40
2006,10,23,12,25,11.40
2006,10,23,12,26,11.40
2006,10,23,12,27,11.40
2006,10,23,12,28,11.50
2006,10,23,12,29,11.60
2006,10,23,12,30,11.60
2006,10,23,12,31,11.60
2006,10,23,12,32,11.70
2006,10,23,12,33,11.80
2006,10,23,12,34,11.70
2006,10,23,12,35,11.70
2006,10,23,12,36,11.60
2006,10,23,12,37,11.60
2006,10,23,12,38,11.70
2006,10,23,12,39,11.70
2006,10,23,12,40,11.70
2006,10,23,12,41,11.70
2006,10,23,12,42,11.80
2006,10,23,12,43,11.80
2006,10,23,12,44,11.80
2006,10,23,12,45,11.80
2006,10,23,12,46,11.80
2006,10,23,12,47,11.80
2006,10,23,12,48,11.80
2006,10,23,12,49,11.90
2006,10,23,12,50,11.90
2006,10,23,12,51,11.80
2006,10,23,12,52,11.90
2006,10,23,12,53,11.90
2006,10,23,12,54,11.90
2006,10,23,12,55,11.80
2006,10,23,12,56,11.80
2006,10,23,12,57,11.70
2006,10,23,12,58,11.70
2006,10,23,12,59,11.80
2006,10,23,13,00,11.90
2006,10,23,13,01,11.90
2006,10,23,13,02,11.90
2006,10,23,13,03,11.90
2006,10,23,13,04,11.80
2006,10,23,13,05,11.80
2006,10,23,13,06,11.70
2006,10,23,13,07,11.70
2006,10,23,13,08,11.60
2006,10,23,13,09,11.60
2006,10,23,13,10,11.70
2006,10,23,13,11,11.70
2006,10,23,13,12,11.80
2006,10,23,13,13,11.80
2006,10,23,13,14,11.80
2006,10,23,13,15,11.80
2006,10,23,13,16,11.80
2006,10,23,13,17,11.80
2006,10,23,13,18,11.80
2006,10,23,13,19,11.90
2006,10,23,13,20,11.90
2006,10,23,13,21,11.80
2006,10,23,13,22,11.80
2006,10,23,13,23,11.80
2006,10,23,13,24,11.80
2006,10,23,13,25,11.80
2006,10,23,13,26,11.80
2006,10,23,13,27,11.70
2006,10,23,13,28,11.70
2006,10,23,13,29,11.80
2006,10,23,13,30,11.80
2006,10,23,13,31,11.80
2006,10,23,13,32,11.80
2006,10,23,13,33,11.90
2006,10,23,13,34,11.80
2006,10,23,13,35,11.80
2006,10,23,13,36,11.80
2006,10,23,13,37,11.70
2006,10,23,13,38,11.70
2006,10,23,13,39,11.70
2006,10,23,13,40,11.70
2006,10,23,13,41,11.80
2006,10,23,13,42,11.80
2006,10,23,13,43,11.80
2006,10,23,13,44,11.80
2006,10,23,13,45,11.80
2006,10,23,13,46,12.00
2006,10,23,13,47,12.00
2006,10,23,13,48,12.00
2006,10,23,13,49,11.90
2006,10,23,13,50,11.90
2006,10,23,13,51,11.90
2006,10,23,13,52,12.00
2006,10,23,13,53,12.00
2006,10,23,13,54,12.10
2006,10,23,13,55,12.10
2006,10,23,13,56,12.10
2006,10,23,13,57,12.10
2006,10,23,13,58,12.00
2006,10,23,13,59,11.90
2006,10,23,14,00,11.90
2006,10,23,14,01,11.80
2006,10,23,14,02,11.80
2006,10,23,14,03,11.70
2006,10,23,14,04,11.70
2006,10,23,14,05,11.70
2006,10,23,14,06,11.70
2006,10,23,14,07,11.70
2006,10,23,14,08,11.80
2006,10,23,14,09,11.70
2006,10,23,14,10,11.70
2006,10,23,14,11,11.70
2006,10,23,14,12,11.60
2006,10,23,14,13,11.70
2006,10,23,14,14,11.70
2006,10,23,14,15,11.60
2006,10,23,14,16,11.70
2006,10,23,14,17,11.60
2006,10,23,14,18,11.70
2006,10,23,14,19,11.60
2006,10,23,14,20,11.60
2006,10,23,14,21,11.60
2006,10,23,14,22,11.60
2006,10,23,14,23,11.60
2006,10,23,14,24,11.50
2006,10,23,14,25,11.40
2006,10,23,14,26,11.40
2006,10,23,14,27,11.40
2006,10,23,14,28,11.40
2006,10,23,14,29,11.40
2006,10,23,14,30,11.40
2006,10,23,14,31,11.40
2006,10,23,14,32,11.40
2006,10,23,14,33,11.40
2006,10,23,14,34,11.40
2006,10,23,14,35,11.40
2006,10,23,14,36,11.40
2006,10,23,14,37,11.40
2006,10,23,14,38,11.30
2006,10,23,14,39,11.30
2006,10,23,14,40,11.30
2006,10,23,14,41,11.20
2006,10,23,14,42,11.20
2006,10,23,14,43,11.10
2006,10,23,14,44,11.10
2006,10,23,14,45,11.10
2006,10,23,14,46,11.10
2006,10,23,14,47,11.10
2006,10,23,14,48,11.00
2006,10,23,14,49,10.90
2006,10,23,14,50,10.90
2006,10,23,14,51,10.90
2006,10,23,14,52,10.90
2006,10,23,14,53,10.90
2006,10,23,14,54,10.90
2006,10,23,14,55,10.90
2006,10,23,14,56,10.90
2006,10,23,14,57,10.90
2006,10,23,14,58,11.00
2006,10,23,14,59,11.10
2006,10,23,15,00,11.10
2006,10,23,15,01,11.10
2006,10,23,15,02,11.10
2006,10,23,15,03,11.10
2006,10,23,15,04,11.10
2006,10,23,15,05,11.10
2006,10,23,15,06,11.10
2006,10,23,15,07,11.10
2006,10,23,15,08,11.10
2006,10,23,15,09,11.10
2006,10,23,15,10,11.10
2006,10,23,15,11,11.00
2006,10,23,15,12,10.90
2006,10,23,15,13,10.90
2006,10,23,15,14,10.90
2006,10,23,15,15,10.90
2006,10,23,15,16,10.90
2006,10,23,15,17,10.90
2006,10,23,15,18,10.90
2006,10,23,15,19,10.90
2006,10,23,15,20,10.90
2006,10,23,15,21,10.90
2006,10,23,15,22,10.90
2006,10,23,15,23,11.00
2006,10,23,15,24,11.10
2006,10,23,15,25,11.10
2006,10,23,15,26,11.10
2006,10,23,15,27,11.10
2006,10,23,15,28,11.10
2006,10,23,15,29,11.10
2006,10,23,15,30,11.10
2006,10,23,15,31,11.20
2006,10,23,15,32,11.20
2006,10,23,15,33,11.20
2006,10,23,15,34,11.20
2006,10,23,15,35,11.10
2006,10,23,15,36,11.10
2006,10,23,15,37,11.20
2006,10,23,15,38,11.20
2006,10,23,15,39,11.20
2006,10,23,15,40,11.20
2006,10,23,15,41,11.10
2006,10,23,15,42,11.10
2006,10,23,15,43,11.00
2006,10,23,15,44,10.90
2006,10,23,15,45,10.90
2006,10,23,15,46,10.90
2006,10,23,15,47,10.90
2006,10,23,15,48,10.90
2006,10,23,15,49,10.90
2006,10,23,15,50,11.00
2006,10,23,15,51,11.10
2006,10,23,15,52,11.10
2006,10,23,15,53,11.20
2006,10,23,15,54,11.20
2006,10,23,15,55,11.20
2006,10,23,15,56,11.20
2006,10,23,15,57,11.20
2006,10,23,15,58,11.30
2006,10,23,15,59,11.30
2006,10,23,16,00,11.30
2006,10,23,16,01,11.30
2006,10,23,16,02,11.30
2006,10,23,16,03,11.30
2006,10,23,16,04,11.40
2006,10,23,16,05,11.40
2006,10,23,16,06,11.40
2006,10,23,16,07,11.40
2006,10,23,16,08,11.40
2006,10,23,16,09,11.40
2006,10,23,16,10,11.40
2006,10,23,16,11,11.30
2006,10,23,16,12,11.30
2006,10,23,16,13,11.20
2006,10,23,16,14,11.20
2006,10,23,16,15,11.10
2006,10,23,16,16,11.10
2006,10,23,16,17,11.10
2006,10,23,16,18,11.20
2006,10,23,16,19,11.20
2006,10,23,16,20,11.30
2006,10,23,16,21,11.30
2006,10,23,16,22,11.30
2006,10,23,16,23,11.30
2006,10,23,16,24,11.30
2006,10,23,16,25,11.20
2006,10,23,16,26,11.20
2006,10,23,16,27,11.30
2006,10,23,16,28,11.30
2006,10,23,16,29,11.30
2006,10,23,16,30,11.20
2006,10,23,16,31,11.30
2006,10,23,16,32,11.30
2006,10,23,16,33,11.30
2006,10,23,16,34,11.30
2006,10,23,16,35,11.30
2006,10,23,16,36,11.20
2006,10,23,16,37,11.10
2006,10,23,16,38,11.10
2006,10,23,16,39,11.10
2006,10,23,16,40,11.10
2006,10,23,16,41,11.10
2006,10,23,16,42,11.10
2006,10,23,16,43,11.10
2006,10,23,16,44,11.10
2006,10,23,16,45,11.00
2006,10,23,16,46,11.00
2006,10,23,16,47,11.10
2006,10,23,16,48,11.10
2006,10,23,16,49,11.00
2006,10,23,16,50,10.90
2006,10,23,16,51,10.90
2006,10,23,16,52,10.80
2006,10,23,16,53,10.80
2006,10,23,16,54,10.70
2006,10,23,16,55,10.70
2006,10,23,16,56,10.70
2006,10,23,16,57,10.70
2006,10,23,16,58,10.70
2006,10,23,16,59,10.60
2006,10,23,17,00,10.60
2006,10,23,17,01,10.60
2006,10,23,17,02,10.60
2006,10,23,17,03,10.60
2006,10,23,17,04,10.60
2006,10,23,17,05,10.60
2006,10,23,17,06,10.60
2006,10,23,17,07,10.60
2006,10,23,17,08,10.60
2006,10,23,17,09,10.60
2006,10,23,17,10,10.60
2006,10,23,17,11,10.60
2006,10,23,17,12,10.60
2006,10,23,17,13,10.60
2006,10,23,17,14,10.60
2006,10,23,17,15,10.60
2006,10,23,17,16,10.60
2006,10,23,17,17,10.60
2006,10,23,17,18,10.60
2006,10,23,17,19,10.60
2006,10,23,17,20,10.60
2006,10,23,17,21,10.60
2006,10,23,17,22,10.60
2006,10,23,17,23,10.60
2006,10,23,17,24,10.60
2006,10,23,17,25,10.60
2006,10,23,17,26,10.60
2006,10,23,17,27,10.60
2006,10,23,17,28,10.60
2006,10,23,17,29,10.60
2006,10,23,17,30,10.70
2006,10,23,17,31,10.70
2006,10,23,17,32,10.70
2006,10,23,17,33,10.60
2006,10,23,17,34,10.60
2006,10,23,17,35,10.60
2006,10,23,17,36,10.60
2006,10,23,17,37,10.60
2006,10,23,17,38,10.60
2006,10,23,17,39,10.60
2006,10,23,17,40,10.60
2006,10,23,17,41,10.60
2006,10,23,17,42,10.60
2006,10,23,17,43,10.60
2006,10,23,17,44,10.60
2006,10,23,17,45,10.60
2006,10,23,17,46,10.60